Weather in Samashki

Russia / Chechen Republic     43°17′27″N   45°18′04″E
temp.,
°C
wind,
m/s
gust,
m/s
humid.,
%
clouds,
%
prec.,
mm/h
press.,
hPa
HPBL,
m
14 may, fri
fri1400:00+14sw1186100 0.0 101411
03:00+13sw11855 0.0 101311
06:00+15ssw01795 0.0 101433
09:00+22ne215867 0.0 1013337
12:00+27ene33485 0.0 1012800
15:00+28ene34441 0.0 1011971
18:00+25nw33620 0.0 101134
21:00+20w22710 0.0 101120
15 may, sat
sat1500:00+17sw22710 0.0 101213
03:00+17wsw22570 0.0 101113
06:00+18w22650 0.0 101233
09:00+24nne22535 0.0 1013507
12:00+28ne21470 0.0 10131221
15:00+29ne22460 0.0 10111570
18:00+26nne2264100 0.0 101124
21:00+17sw2281100 1.3 101320
16 may, sun
sun1600:00+16wsw227713 0.0 101116
03:00+16wsw22767 0.0 101111
06:00+18wsw11735 0.0 101034
09:00+24ne21542 0.0 1009430
12:00+28ene34423 0.0 1007981
15:00+29ne34395 0.0 10051166
18:00+27nne11560 0.0 100419
21:00+19w22635 0.0 100622
17 may, mon
mon1700:00+18wsw324114 0.0 100523
03:00+16sw114024 0.0 100511
06:00+18sw11535 0.0 100511
09:00+23ene2242100 0.0 1005309
12:00+28ene33350 0.0 1004739
15:00+30ne33354 0.0 1003997
18:00+24n23615 0.0 100455
21:00+20w3368100 0.0 100731
18 may, tue
tue1800:00+19w6117698 0.0 1008312
03:00+18w487998 0.0 1008221
06:00+19w5974100 0.0 1010446
09:00+18w61183100 1.0 1011681
12:00+22wnw6868100 0.3 10121165
15:00+19w598999 3.9 1013472
18:00+18wsw61186100 1.6 1013331
21:00+17wsw3786100 2.2 1014162